Location: Unspecified
(42.3650°N, 71.1030°W)
Time: 15:22:10
(UTC+00:00)

Tiros 1 - Pass Details

Date: 02 July 2024
Orbit: 624 x 656 km, 48.4° (Epoch: 13 July)

Event Time Altitude Azimuth Distance (km) Brightness Sun altitude
Rises 02:24:54 0° 262° (W) 2,900 10.9 -16.7°
Reaches altitude 10° 02:27:17 10° 267° (W) 1,993 10.1 -17.0°
Maximum altitude 02:31:44 51° 344° (NNW) 789 8.0 -17.4°
Drops below altitude 10° 02:36:13 10° 60° (ENE) 1,998 9.6 -17.8°
Sets 02:38:36 0° 66° (ENE) 2,908 10.4 -18.1°
